Location: Cluj-Napoca
(46.7712°N, 23.6236°E)
Time: 04:24:30
(UTC+03:00)

ISS - Pass Details

Date: 07 July 2020
Orbit: 417 x 421 km, 51.6° (Epoch: 08 July)

Event Time Altitude Azimuth Distance (km) Brightness Sun altitude
Exits shadow 03:37:43 15° 269° (W) 1,218 -1.7 -15.0°
Maximum altitude 03:40:17 50° 343° (NNW) 542 -3.0 -14.7°
Drops below altitude 10° 03:43:34 10° 60° (ENE) 1,499 0.0 -14.4°
Sets 03:45:43 0° 66° (ENE) 2,364 1.1 -14.2°
